Location: Newark
(58.8333°N, 23.5833°E)
Time: 18:23:15
(UTC+00:00)

Explorer 7 - Pass Details

Date: 20 November 2019
Orbit: 485 x 680 km, 50.3° (Epoch: 10 December)

Event Time Altitude Azimuth Distance (km) Brightness Sun altitude
Rises 23:17:38 0° 230° (SW) 2,922 - -49.2°
Reaches altitude 10° 23:20:23 10° 216° (SW) 1,981 - -49.0°
Maximum altitude 23:23:55 23° 165° (SSE) 1,297 - -48.8°
Drops below altitude 10° 23:27:18 10° 113° (ESE) 1,886 - -48.6°
Sets 23:29:50 0° 98° (E) 2,746 - -48.5°
